C/2018 N2 ( ASASSN )

Japanese version
Home page
Updated on November 19, 2018

---------------------------------------------------------------------

* Profile

Discovery Date July 7, 2018
Magnitude 16.4 mag
Discoverer All-Sky Automated Survey for Supernovae (ASASSN) program

* Pictures

* Orbital Elements

Epoch 2019 Nov. 13.0 TT = JDT 2458800.5
T 2019 Nov. 11.00989 TT                                 MPCW
q   3.1249348            (2000.0)            P               Q
z  +0.0000216      Peri.   24.39404     +0.78557371     -0.45743487
 +/-0.0000501      Node    25.26171     +0.27017177     -0.35225852
e   0.9999326      Incl.   77.52994     +0.55666970     +0.81649695
From 115 observations 2018 July 11-Oct. 11, mean residual 0".5.

* Finding Charts

* Magnitudes Graph

        m1 = 4.0 + 5 log d + 10.0 log r

---------------------------------------------------------------------

The orbital elements are published on M.P.E.C. 2018-U70.
The charts are made with StellaNavigator Ver.10 (AstroArts).
The magnitudes graphs are made with Comet for Windows.

---------------------------------------------------------------------

Copyright(C) Seiichi Yoshida (comet@aerith.net). All rights reserved.